User: anonymous   Login
Location: La Brionne
(46.1728°N, 1.7849°E)
Time: 22:33:28
(UTC+00:00)
Language:

XW-2C - Orbit

View from above orbital plane
View from above orbital plane
View from above satellite
View from above satellite

Ground track
Ground track

The orbit data is extracted from the following two-line orbital elements,

1 40906U 15049H   23081.32144368  .00015515  00000-0  64154-3 0  9993
2 40906  97.4969  88.3018 0014705 105.1947  11.1198 15.23965170415153
Epoch (UTC): 22 March 2023 07:42:52
Eccentricity: 0.0014705
inclination: 97.4969°
perigee height: 484 km
apogee height: 504 km
right ascension of ascending node: 88.3018°
argument of perigee: 105.1947°
revolutions per day: 15.23965170
mean anomaly at epoch: 11.1198°
orbit number at epoch: 41515

The dashed part of the orbit path shows where the satellite is in the earth's shadow,  

DLR